User: anonymous   Login
Location: Guayaquil
(2.1667°S, 79.9000°W)
Time: 00:19:47
(UTC-05:00)
Language:

NEE 01 PEGASUS - Orbit

View from above orbital plane
View from above orbital plane
View from above satellite
View from above satellite

Ground track
Ground track

The orbit data is extracted from the following two-line orbital elements,

1 39151U 13018B   24109.26447860  .00007983  00000-0  93702-3 0  9996
2 39151  98.0273 225.8418 0014468 231.7072 128.2841 14.85134871593077
Epoch (UTC): 18 April 2024 06:20:50
Eccentricity: 0.0014468
inclination: 98.0273°
perigee height: 603 km
apogee height: 623 km
right ascension of ascending node: 225.8418°
argument of perigee: 231.7072°
revolutions per day: 14.85134871
mean anomaly at epoch: 128.2841°
orbit number at epoch: 59307

The dashed part of the orbit path shows where the satellite is in the earth's shadow,  

DLR